Main page
METAR-TAF:

METAR-TAF

Airports :

Algeciras Heliport

Algeciras, Spain

latitude: 36-07-44N, longitude: 05-26-28W, elevation: 30 m

Current weather observation

The report was made 21 minutes ago, at 12:30 UTC
Wind 10 kt from the South/Southeast
Temperature 27°C
Humidity 48%
Pressure 1017 hPa
Visibility 10 km or more
no clouds below 1500 m and no cumulonimbus

METAR: LEAG 211230Z AUTO 15010KT CAVOK 27/15 Q1017

Time: 14:51 (12:51 UTC)


TAF: missing

Weather observations and forecasts of more than 4000 airports (METAR and TAF reports).

The available stations are represented by yellow and red dots on the map.

Hover mouse over dot to see the name of the station.

Then click to see weather observations and forecasts.

To change the map : click on the green buttons with a black cross to zoom in, on the green button with a dash to zoom out, or on the green arrows for adjacent maps.


METAR-TAF: